Time,TemperatureF,DewpointF,PressureIn,WindDirection,WindDirectionDegrees,WindSpeedMPH,WindSpeedGustMPH,Humidity,HourlyPrecipIn,Conditions,Clouds,dailyrainin,SoftwareType,DateUTC
2013-02-05 00:57:00,18.9,12.9,29.17,ESE,113,0.0,0.0,77,0.00,,,0.00,WUHU21623XXSP,2013-02-05 06:57:00,
2013-02-05 01:57:00,20.1,14.4,29.15,SSE,158,3.1,3.1,78,0.00,,,0.00,WUHU21623XXSP,2013-02-05 07:57:00,
2013-02-05 02:57:00,21.4,15.6,29.13,SW,225,3.1,3.1,78,0.00,,,0.00,WUHU21623XXSP,2013-02-05 08:57:00,
2013-02-05 03:57:00,22.1,16.3,29.12,South,180,3.1,3.1,78,0.00,,,0.00,WUHU21623XXSP,2013-02-05 09:57:00,
2013-02-05 04:57:00,22.8,17.3,29.11,SSW,203,0.0,0.0,79,0.00,,,0.00,WUHU21623XXSP,2013-02-05 10:57:00,
2013-02-05 06:02:00,23.5,18.0,29.08,SSW,203,3.6,3.6,79,0.00,,,0.00,WUHU21623XXSP,2013-02-05 12:02:00,
2013-02-05 06:07:00,23.7,18.2,29.08,West,270,0.0,4.9,79,0.00,,,0.00,WUHU21623XXSP,2013-02-05 12:07:00,
2013-02-05 06:12:00,23.7,18.5,29.09,South,180,0.0,4.9,80,0.00,,,0.00,WUHU21623XXSP,2013-02-05 12:12:00,
2013-02-05 06:17:00,23.7,18.5,29.09,South,180,3.6,3.6,80,0.00,,,0.00,WUHU21623XXSP,2013-02-05 12:17:00,
2013-02-05 06:22:00,23.7,18.5,29.09,SW,225,0.0,3.6,80,0.00,,,0.00,WUHU21623XXSP,2013-02-05 12:22:00,
2013-02-05 06:27:00,23.9,18.7,29.09,SSW,202,0.0,0.0,80,0.00,,,0.00,WUHU21623XXSP,2013-02-05 12:27:00,
2013-02-05 06:32:00,23.9,18.7,29.10,SSW,202,0.0,0.0,80,0.00,,,0.00,WUHU21623XXSP,2013-02-05 12:32:00,
2013-02-05 06:37:00,24.1,18.9,29.10,SW,225,1.3,1.3,80,0.00,,,0.00,WUHU21623XXSP,2013-02-05 12:37:00,
2013-02-05 06:42:00,24.1,18.9,29.10,South,180,0.0,2.0,80,0.00,,,0.00,WUHU21623XXSP,2013-02-05 12:42:00,
2013-02-05 06:47:00,24.1,18.9,29.10,SSW,202,2.0,2.0,80,0.00,,,0.00,WUHU21623XXSP,2013-02-05 12:47:00,
2013-02-05 06:52:00,24.1,18.9,29.10,SSW,202,1.6,2.0,80,0.00,,,0.00,WUHU21623XXSP,2013-02-05 12:52:00,
2013-02-05 06:57:00,24.1,18.9,29.09,SSW,202,6.5,6.5,80,0.00,,,0.00,WUHU21623XXSP,2013-02-05 12:57:00,
2013-02-05 07:02:00,24.3,19.0,29.09,SSW,202,1.8,6.5,80,0.00,,,0.00,WUHU21623XXSP,2013-02-05 13:02:00,
2013-02-05 07:07:00,24.4,19.2,29.09,SSW,202,0.7,6.5,80,0.00,,,0.00,WUHU21623XXSP,2013-02-05 13:07:00,
2013-02-05 07:12:00,24.4,19.2,29.09,South,180,0.7,1.8,80,0.00,,,0.00,WUHU21623XXSP,2013-02-05 13:12:00,
2013-02-05 07:17:00,24.4,19.2,29.09,SSW,202,2.2,5.6,80,0.00,,,0.00,WUHU21623XXSP,2013-02-05 13:17:00,
2013-02-05 07:22:00,24.4,19.2,29.09,SSW,202,4.7,5.6,80,0.00,,,0.00,WUHU21623XXSP,2013-02-05 13:22:00,
2013-02-05 07:27:00,24.4,19.2,29.09,SSW,202,6.3,6.3,80,0.00,,,0.00,WUHU21623XXSP,2013-02-05 13:27:00,
2013-02-05 07:32:00,24.4,19.2,29.08,SSW,202,5.4,7.8,80,0.00,,,0.00,WUHU21623XXSP,2013-02-05 13:32:00,
2013-02-05 07:37:00,24.4,19.2,29.08,SW,225,6.5,7.8,80,0.00,,,0.00,WUHU21623XXSP,2013-02-05 13:37:00,
2013-02-05 07:42:00,24.4,19.2,29.08,SSW,202,0.0,6.5,80,0.00,,,0.00,WUHU21623XXSP,2013-02-05 13:42:00,
2013-02-05 07:47:00,24.4,19.2,29.08,SSW,202,2.0,5.8,80,0.00,,,0.00,WUHU21623XXSP,2013-02-05 13:47:00,
2013-02-05 07:52:00,24.4,19.2,29.08,SSW,202,4.5,5.6,80,0.00,,,0.00,WUHU21623XXSP,2013-02-05 13:52:00,
2013-02-05 07:57:00,24.6,19.4,29.08,SSW,202,0.0,5.6,80,0.00,,,0.00,WUHU21623XXSP,2013-02-05 13:57:00,
2013-02-05 08:02:00,24.6,19.7,29.08,SSW,202,4.7,5.4,81,0.00,,,0.00,WUHU21623XXSP,2013-02-05 14:02:00,
2013-02-05 08:07:00,25.0,19.9,29.08,SSW,202,0.0,6.7,81,0.00,,,0.00,WUHU21623XXSP,2013-02-05 14:07:00,
2013-02-05 08:12:00,25.2,20.0,29.08,SSW,202,0.0,6.7,81,0.00,,,0.00,WUHU21623XXSP,2013-02-05 14:12:00,
2013-02-05 08:17:00,25.2,20.0,29.08,SSW,202,0.0,0.0,81,0.00,,,0.00,WUHU21623XXSP,2013-02-05 14:17:00,
2013-02-05 08:22:00,25.5,20.3,29.08,SSW,202,0.0,0.0,81,0.00,,,0.00,WUHU21623XXSP,2013-02-05 14:22:00,
2013-02-05 08:27:00,25.9,20.7,29.08,SSW,202,0.0,0.0,81,0.00,,,0.00,WUHU21623XXSP,2013-02-05 14:27:00,
2013-02-05 08:32:00,26.2,21.1,29.08,SW,225,2.7,2.7,81,0.00,,,0.00,WUHU21623XXSP,2013-02-05 14:32:00,
2013-02-05 08:37:00,26.6,21.2,29.08,SW,225,7.2,7.2,80,0.00,,,0.00,WUHU21623XXSP,2013-02-05 14:37:00,
2013-02-05 08:42:00,27.0,21.6,29.08,SW,225,4.5,7.2,80,0.00,,,0.00,WUHU21623XXSP,2013-02-05 14:42:00,
2013-02-05 08:47:00,27.3,21.7,29.08,WSW,247,4.0,4.5,80,0.00,,,0.00,WUHU21623XXSP,2013-02-05 14:47:00,
2013-02-05 08:52:00,27.7,22.3,29.08,SW,225,3.1,9.8,80,0.00,,,0.00,WUHU21623XXSP,2013-02-05 14:52:00,
2013-02-05 08:57:00,28.0,22.6,29.08,SW,225,4.0,9.8,80,0.00,,,0.00,WUHU21623XXSP,2013-02-05 14:57:00,
2013-02-05 09:02:00,28.2,22.8,29.08,SSW,202,1.8,4.0,80,0.00,,,0.00,WUHU21623XXSP,2013-02-05 15:02:00,
2013-02-05 09:07:00,28.6,22.9,29.07,SW,225,3.4,3.4,79,0.00,,,0.00,WUHU21623XXSP,2013-02-05 15:07:00,
2013-02-05 09:12:00,29.1,23.4,29.07,SW,225,3.1,3.4,79,0.00,,,0.00,WUHU21623XXSP,2013-02-05 15:12:00,
2013-02-05 09:17:00,29.5,23.8,29.07,SW,225,5.8,5.8,79,0.00,,,0.00,WUHU21623XXSP,2013-02-05 15:17:00,
2013-02-05 09:22:00,30.0,24.0,29.07,SW,225,4.3,9.4,78,0.00,,,0.00,WUHU21623XXSP,2013-02-05 15:22:00,
2013-02-05 09:27:00,30.2,24.2,29.07,SW,225,7.8,9.4,78,0.00,,,0.00,WUHU21623XXSP,2013-02-05 15:27:00,
2013-02-05 09:32:00,30.6,24.5,29.06,SSE,157,3.4,8.1,78,0.00,,,0.00,WUHU21623XXSP,2013-02-05 15:32:00,
2013-02-05 09:37:00,30.7,24.4,29.07,SW,225,5.8,10.7,77,0.00,,,0.00,WUHU21623XXSP,2013-02-05 15:37:00,
2013-02-05 09:42:00,30.9,24.5,29.06,SW,225,10.1,10.7,77,0.00,,,0.00,WUHU21623XXSP,2013-02-05 15:42:00,
2013-02-05 09:47:00,31.3,24.6,29.06,SW,225,5.6,10.1,76,0.00,,,0.00,WUHU21623XXSP,2013-02-05 15:47:00,
2013-02-05 09:52:00,31.6,24.9,29.06,SW,225,6.5,13.0,76,0.00,,,0.00,WUHU21623XXSP,2013-02-05 15:52:00,
2013-02-05 09:58:00,31.8,24.6,29.06,SW,225,4.9,13.0,75,0.00,,,0.00,WUHU21623XXSP,2013-02-05 15:58:00,
2013-02-05 10:03:00,32.0,25.0,29.06,WSW,247,6.0,6.0,75,0.00,,,0.00,WUHU21623XXSP,2013-02-05 16:03:00,
2013-02-05 10:08:00,32.4,25.3,29.06,SSW,202,6.0,13.9,75,0.00,,,0.00,WUHU21623XXSP,2013-02-05 16:08:00,
2013-02-05 10:13:00,32.7,25.6,29.07,WSW,247,2.5,13.9,75,0.00,,,0.00,WUHU21623XXSP,2013-02-05 16:13:00,
2013-02-05 10:18:00,33.1,26.0,29.07,WSW,247,6.5,6.5,75,0.00,,,0.00,WUHU21623XXSP,2013-02-05 16:18:00,
2013-02-05 10:23:00,33.6,26.1,29.07,WSW,247,4.3,10.5,74,0.00,,,0.00,WUHU21623XXSP,2013-02-05 16:23:00,
2013-02-05 10:28:00,33.8,26.3,29.07,WSW,247,9.4,10.5,74,0.00,,,0.00,WUHU21623XXSP,2013-02-05 16:28:00,
2013-02-05 10:33:00,34.2,26.6,29.07,SW,225,2.5,9.4,74,0.00,,,0.00,WUHU21623XXSP,2013-02-05 16:33:00,
2013-02-05 10:38:00,34.3,26.5,29.06,WSW,247,4.3,7.8,73,0.00,,,0.00,WUHU21623XXSP,2013-02-05 16:38:00,
2013-02-05 10:43:00,34.9,27.0,29.06,WSW,247,4.5,9.8,73,0.00,,,0.00,WUHU21623XXSP,2013-02-05 16:43:00,
2013-02-05 10:48:00,35.2,27.4,29.05,SW,225,3.4,11.4,73,0.00,,,0.00,WUHU21623XXSP,2013-02-05 16:48:00,
2013-02-05 10:53:00,35.4,27.2,29.06,WSW,247,13.9,13.9,72,0.00,,,0.00,WUHU21623XXSP,2013-02-05 16:53:00,
2013-02-05 10:58:00,35.8,27.6,29.06,SW,225,8.3,13.9,72,0.00,,,0.00,WUHU21623XXSP,2013-02-05 16:58:00,
2013-02-05 11:03:00,36.0,27.8,29.07,West,270,2.9,8.3,72,0.00,,,0.00,WUHU21623XXSP,2013-02-05 17:03:00,
2013-02-05 11:08:00,36.3,28.1,29.07,West,270,6.7,6.7,72,0.00,,,0.00,WUHU21623XXSP,2013-02-05 17:08:00,
2013-02-05 11:13:00,36.3,27.8,29.07,West,270,5.8,6.7,71,0.00,,,0.00,WUHU21623XXSP,2013-02-05 17:13:00,
2013-02-05 11:18:00,36.5,28.0,29.07,WSW,247,7.6,10.3,71,0.00,,,0.00,WUHU21623XXSP,2013-02-05 17:18:00,
2013-02-05 11:23:00,36.7,28.2,29.06,WSW,247,4.3,10.3,71,0.00,,,0.00,WUHU21623XXSP,2013-02-05 17:23:00,
2013-02-05 11:28:00,36.7,28.2,29.07,WNW,292,1.3,6.0,71,0.00,,,0.00,WUHU21623XXSP,2013-02-05 17:28:00,
2013-02-05 11:33:00,36.7,27.9,29.07,West,270,5.8,5.8,70,0.00,,,0.00,WUHU21623XXSP,2013-02-05 17:33:00,
2013-02-05 11:38:00,36.9,28.0,29.07,West,270,0.7,11.9,70,0.00,,,0.00,WUHU21623XXSP,2013-02-05 17:38:00,
2013-02-05 11:43:00,37.0,28.2,29.07,West,270,4.9,11.9,70,0.00,,,0.00,WUHU21623XXSP,2013-02-05 17:43:00,
2013-02-05 11:48:00,37.2,28.4,29.07,West,270,0.9,9.8,70,0.00,,,0.00,WUHU21623XXSP,2013-02-05 17:48:00,
2013-02-05 11:53:00,37.2,28.4,29.07,West,270,4.3,9.8,70,0.00,,,0.00,WUHU21623XXSP,2013-02-05 17:53:00,
2013-02-05 11:58:00,37.6,28.4,29.07,NNW,337,6.7,6.9,69,0.00,,,0.00,WUHU21623XXSP,2013-02-05 17:58:00,
2013-02-05 12:03:00,37.6,28.7,29.07,WSW,247,3.6,6.9,70,0.00,,,0.00,WUHU21623XXSP,2013-02-05 18:03:00,
2013-02-05 12:08:00,37.6,28.4,29.07,West,270,2.0,6.7,70,0.00,,,0.00,WUHU21623XXSP,2013-02-05 18:08:00,
2013-02-05 12:13:00,37.8,28.7,29.07,WSW,247,7.4,7.4,70,0.00,,,0.00,WUHU21623XXSP,2013-02-05 18:13:00,
2013-02-05 12:18:00,38.1,29.2,29.07,WNW,292,6.7,7.4,70,0.00,,,0.00,WUHU21623XXSP,2013-02-05 18:18:00,
2013-02-05 12:23:00,38.1,28.9,29.07,NW,315,9.6,9.6,69,0.00,,,0.00,WUHU21623XXSP,2013-02-05 18:23:00,
2013-02-05 12:28:00,37.9,28.7,29.07,WNW,292,6.0,9.6,69,0.00,,,0.00,WUHU21623XXSP,2013-02-05 18:28:00,
2013-02-05 12:33:00,37.9,28.7,29.07,NE,45,3.6,6.0,69,0.00,,,0.00,WUHU21623XXSP,2013-02-05 18:33:00,
2013-02-05 12:38:00,37.9,28.7,29.07,SW,225,6.5,7.4,69,0.00,,,0.00,WUHU21623XXSP,2013-02-05 18:38:00,
2013-02-05 12:43:00,38.1,28.9,29.07,West,270,7.2,7.4,69,0.00,,,0.00,WUHU21623XXSP,2013-02-05 18:43:00,
2013-02-05 12:48:00,38.3,29.0,29.07,NW,315,5.4,7.2,69,0.00,,,0.00,WUHU21623XXSP,2013-02-05 18:48:00,
2013-02-05 12:53:00,38.8,29.5,29.07,West,270,5.8,7.6,69,0.00,,,0.00,WUHU21623XXSP,2013-02-05 18:53:00,
2013-02-05 12:58:00,39.0,29.3,29.08,NNE,22,2.0,7.6,68,0.00,,,0.00,WUHU21623XXSP,2013-02-05 18:58:00,
2013-02-05 13:03:00,39.0,28.9,29.08,NNW,337,4.9,9.8,67,0.00,,,0.00,WUHU21623XXSP,2013-02-05 19:03:00,
2013-02-05 13:08:00,38.5,28.4,29.08,NW,315,0.0,9.8,67,0.00,,,0.00,WUHU21623XXSP,2013-02-05 19:08:00,
2013-02-05 13:13:00,38.3,28.6,29.08,NW,315,8.3,8.3,68,0.00,,,0.00,WUHU21623XXSP,2013-02-05 19:13:00,
2013-02-05 13:18:00,38.1,28.5,29.08,West,270,6.7,9.6,68,0.00,,,0.00,WUHU21623XXSP,2013-02-05 19:18:00,
2013-02-05 13:23:00,38.1,28.5,29.09,West,270,2.5,9.6,68,0.00,,,0.00,WUHU21623XXSP,2013-02-05 19:23:00,
2013-02-05 13:28:00,38.3,29.0,29.09,West,270,2.9,7.2,69,0.00,,,0.00,WUHU21623XXSP,2013-02-05 19:28:00,
2013-02-05 13:33:00,38.3,28.6,29.10,West,270,2.7,4.3,68,0.00,,,0.00,WUHU21623XXSP,2013-02-05 19:33:00,
2013-02-05 13:38:00,37.9,28.7,29.10,NNW,337,4.9,4.9,69,0.00,,,0.00,WUHU21623XXSP,2013-02-05 19:38:00,
2013-02-05 13:43:00,37.6,28.5,29.10,West,270,3.1,4.9,69,0.00,,,0.00,WUHU21623XXSP,2013-02-05 19:43:00,
2013-02-05 13:48:00,37.4,28.2,29.10,West,270,2.5,3.1,69,0.00,,,0.00,WUHU21623XXSP,2013-02-05 19:48:00,
2013-02-05 13:53:00,37.0,28.2,29.09,NW,315,6.7,6.7,70,0.00,,,0.00,WUHU21623XXSP,2013-02-05 19:53:00,
2013-02-05 13:58:00,37.0,28.2,29.10,North,0,2.5,7.4,70,0.00,,,0.00,WUHU21623XXSP,2013-02-05 19:58:00,
2013-02-05 14:03:00,37.0,28.2,29.10,NNW,337,2.5,7.4,70,0.00,,,0.00,WUHU21623XXSP,2013-02-05 20:03:00,
2013-02-05 14:08:00,37.2,28.4,29.10,NW,315,0.0,6.5,71,0.00,,,0.00,WUHU21623XXSP,2013-02-05 20:08:00,
2013-02-05 14:13:00,37.2,28.7,29.10,WSW,247,0.0,2.9,71,0.00,,,0.00,WUHU21623XXSP,2013-02-05 20:13:00,
2013-02-05 14:18:00,37.4,28.9,29.10,WNW,292,8.3,8.3,71,0.00,,,0.00,WUHU21623XXSP,2013-02-05 20:18:00,
2013-02-05 14:23:00,37.6,29.1,29.10,NW,315,3.6,8.3,71,0.00,,,0.00,WUHU21623XXSP,2013-02-05 20:23:00,
2013-02-05 14:28:00,37.8,29.2,29.10,WNW,292,0.0,6.7,71,0.00,,,0.00,WUHU21623XXSP,2013-02-05 20:28:00,
2013-02-05 14:33:00,38.1,29.6,29.11,WNW,292,6.5,6.9,71,0.00,,,0.00,WUHU21623XXSP,2013-02-05 20:33:00,
2013-02-05 14:38:00,38.3,29.7,29.11,West,270,4.0,6.9,71,0.00,,,0.00,WUHU21623XXSP,2013-02-05 20:38:00,
2013-02-05 14:43:00,38.5,29.9,29.11,WSW,247,5.6,6.9,71,0.00,,,0.00,WUHU21623XXSP,2013-02-05 20:43:00,
2013-02-05 14:48:00,38.3,29.7,29.12,NW,315,3.6,9.4,71,0.00,,,0.00,WUHU21623XXSP,2013-02-05 20:48:00,
2013-02-05 14:53:00,38.1,29.6,29.12,WNW,292,6.5,9.4,71,0.00,,,0.00,WUHU21623XXSP,2013-02-05 20:53:00,
2013-02-05 14:58:00,38.3,29.7,29.12,WNW,292,3.4,8.3,71,0.00,,,0.00,WUHU21623XXSP,2013-02-05 20:58:00,
2013-02-05 15:03:00,38.5,29.9,29.12,WNW,292,0.0,7.2,71,0.00,,,0.00,WUHU21623XXSP,2013-02-05 21:03:00,
2013-02-05 15:08:00,38.5,29.9,29.13,WNW,292,6.5,7.2,71,0.00,,,0.00,WUHU21623XXSP,2013-02-05 21:08:00,
2013-02-05 15:13:00,38.5,29.9,29.13,WNW,292,3.1,6.5,71,0.00,,,0.00,WUHU21623XXSP,2013-02-05 21:13:00,
2013-02-05 15:18:00,38.5,30.0,29.13,WSW,247,2.7,6.0,71,0.00,,,0.00,WUHU21623XXSP,2013-02-05 21:18:00,
2013-02-05 15:23:00,38.5,29.9,29.13,West,270,0.9,2.7,71,0.00,,,0.00,WUHU21623XXSP,2013-02-05 21:23:00,
2013-02-05 15:28:00,38.8,30.2,29.13,West,270,4.0,4.0,71,0.00,,,0.00,WUHU21623XXSP,2013-02-05 21:28:00,
2013-02-05 15:33:00,38.8,30.2,29.13,NNW,337,4.7,6.9,71,0.00,,,0.00,WUHU21623XXSP,2013-02-05 21:33:00,
2013-02-05 15:38:00,38.8,30.2,29.13,North,0,0.7,6.9,71,0.00,,,0.00,WUHU21623XXSP,2013-02-05 21:38:00,
2013-02-05 15:43:00,38.5,30.2,29.14,West,270,6.5,6.5,71,0.00,,,0.00,WUHU21623XXSP,2013-02-05 21:43:00,
2013-02-05 15:48:00,38.5,29.9,29.14,West,270,3.8,6.5,71,0.00,,,0.00,WUHU21623XXSP,2013-02-05 21:48:00,
2013-02-05 15:53:00,38.5,29.9,29.14,North,0,0.0,3.8,71,0.00,,,0.00,WUHU21623XXSP,2013-02-05 21:53:00,
2013-02-05 15:58:00,38.3,29.7,29.14,WNW,292,4.7,4.9,71,0.00,,,0.00,WUHU21623XXSP,2013-02-05 21:58:00,
2013-02-05 16:03:00,38.3,30.1,29.15,NW,315,4.0,4.9,72,0.00,,,0.00,WUHU21623XXSP,2013-02-05 22:03:00,
2013-02-05 16:08:00,38.3,30.1,29.15,West,270,0.0,4.9,72,0.00,,,0.00,WUHU21623XXSP,2013-02-05 22:08:00,
2013-02-05 16:13:00,38.3,30.1,29.15,North,0,0.0,3.4,72,0.00,,,0.00,WUHU21623XXSP,2013-02-05 22:13:00,
2013-02-05 16:18:00,38.1,29.9,29.15,WNW,292,0.0,3.6,72,0.00,,,0.00,WUHU21623XXSP,2013-02-05 22:18:00,
2013-02-05 16:23:00,37.9,29.7,29.16,NW,315,0.0,3.6,72,0.00,,,0.00,WUHU21623XXSP,2013-02-05 22:23:00,
2013-02-05 16:28:00,37.9,29.7,29.16,NW,315,3.1,3.1,72,0.00,,,0.00,WUHU21623XXSP,2013-02-05 22:28:00,
2013-02-05 16:33:00,37.6,29.4,29.16,NNW,337,2.5,3.1,72,0.00,,,0.00,WUHU21623XXSP,2013-02-05 22:33:00,
2013-02-05 16:38:00,37.4,29.2,29.17,NNW,337,4.9,5.6,72,0.00,,,0.00,WUHU21623XXSP,2013-02-05 22:38:00,
2013-02-05 16:43:00,37.2,29.0,29.17,WNW,292,7.4,7.4,72,0.00,,,0.00,WUHU21623XXSP,2013-02-05 22:43:00,
2013-02-05 16:48:00,37.2,29.4,29.17,NNE,22,0.0,7.4,73,0.00,,,0.00,WUHU21623XXSP,2013-02-05 22:48:00,
2013-02-05 16:53:00,37.2,29.4,29.17,NNW,337,0.9,0.9,73,0.00,,,0.00,WUHU21623XXSP,2013-02-05 22:53:00,
2013-02-05 16:58:00,37.0,29.2,29.18,NNW,337,0.0,0.9,73,0.00,,,0.00,WUHU21623XXSP,2013-02-05 22:58:00,
2013-02-05 17:03:00,36.9,28.7,29.18,NW,315,0.0,3.6,72,0.00,,,0.00,WUHU21623XXSP,2013-02-05 23:03:00,
2013-02-05 17:08:00,36.7,28.8,29.18,West,270,0.0,3.6,73,0.00,,,0.00,WUHU21623XXSP,2013-02-05 23:08:00,
2013-02-05 17:13:00,36.5,28.7,29.19,NNW,337,1.1,2.9,73,0.00,,,0.00,WUHU21623XXSP,2013-02-05 23:13:00,
2013-02-05 17:18:00,36.3,28.5,29.19,North,0,2.7,2.7,73,0.00,,,0.00,WUHU21623XXSP,2013-02-05 23:18:00,
2013-02-05 17:23:00,36.1,28.3,29.19,NW,315,1.6,2.7,73,0.00,,,0.00,WUHU21623XXSP,2013-02-05 23:23:00,
2013-02-05 17:28:00,36.1,28.3,29.19,WNW,292,0.0,1.6,73,0.00,,,0.00,WUHU21623XXSP,2013-02-05 23:28:00,
2013-02-05 17:33:00,36.1,28.6,29.20,WNW,292,0.0,1.8,74,0.00,,,0.00,WUHU21623XXSP,2013-02-05 23:33:00,
2013-02-05 17:38:00,36.0,28.4,29.20,West,270,0.0,1.8,74,0.00,,,0.00,WUHU21623XXSP,2013-02-05 23:38:00,
2013-02-05 17:43:00,36.0,28.4,29.20,WNW,292,0.0,0.0,74,0.00,,,0.00,WUHU21623XXSP,2013-02-05 23:43:00,
2013-02-05 17:48:00,35.8,28.3,29.20,WSW,247,0.0,0.0,74,0.00,,,0.00,WUHU21623XXSP,2013-02-05 23:48:00,
2013-02-05 17:53:00,35.8,28.3,29.20,NNE,22,0.0,2.5,74,0.00,,,0.00,WUHU21623XXSP,2013-02-05 23:53:00,
2013-02-05 17:58:00,35.8,28.3,29.20,WNW,292,0.0,2.5,74,0.00,,,0.00,WUHU21623XXSP,2013-02-05 23:58:00,
2013-02-05 18:03:00,35.8,28.3,29.21,West,270,0.0,1.6,74,0.00,,,0.00,WUHU21623XXSP,2013-02-06 00:03:00,
2013-02-05 18:08:00,35.8,28.3,29.21,WNW,292,7.4,7.4,73,0.00,,,0.00,WUHU21623XXSP,2013-02-06 00:08:00,
2013-02-05 18:13:00,35.8,27.9,29.21,West,270,6.0,7.4,73,0.00,,,0.00,WUHU21623XXSP,2013-02-06 00:13:00,
2013-02-05 18:18:00,35.8,27.6,29.21,NW,315,0.0,6.0,72,0.00,,,0.00,WUHU21623XXSP,2013-02-06 00:18:00,
2013-02-05 18:23:00,35.8,27.6,29.21,NE,45,2.0,5.6,72,0.00,,,0.00,WUHU21623XXSP,2013-02-06 00:23:00,
2013-02-05 18:28:00,35.8,27.6,29.22,NNW,337,4.5,4.5,72,0.00,,,0.00,WUHU21623XXSP,2013-02-06 00:28:00,
2013-02-05 18:33:00,35.8,27.6,29.22,WSW,247,3.4,4.5,72,0.00,,,0.00,WUHU21623XXSP,2013-02-06 00:33:00,
2013-02-05 18:38:00,35.8,27.6,29.22,North,0,0.0,3.4,72,0.00,,,0.00,WUHU21623XXSP,2013-02-06 00:38:00,
2013-02-05 18:43:00,35.8,27.6,29.22,WNW,292,0.0,0.7,72,0.00,,,0.00,WUHU21623XXSP,2013-02-06 00:43:00,
2013-02-05 18:48:00,35.6,27.4,29.22,NW,315,6.7,6.7,72,0.00,,,0.00,WUHU21623XXSP,2013-02-06 00:48:00,
2013-02-05 18:53:00,35.6,27.4,29.23,NNW,337,6.5,6.7,72,0.00,,,0.00,WUHU21623XXSP,2013-02-06 00:53:00,
2013-02-05 18:58:00,35.6,27.4,29.23,WNW,292,7.4,7.4,72,0.00,,,0.00,WUHU21623XXSP,2013-02-06 00:58:00,
2013-02-05 19:03:00,35.6,27.4,29.23,WNW,292,2.5,7.4,72,0.00,,,0.00,WUHU21623XXSP,2013-02-06 01:03:00,
2013-02-05 19:08:00,35.6,27.4,29.23,WNW,292,2.5,7.4,72,0.00,,,0.00,WUHU21623XXSP,2013-02-06 01:08:00,
2013-02-05 19:13:00,35.4,27.2,29.24,WNW,292,6.7,6.7,72,0.00,,,0.00,WUHU21623XXSP,2013-02-06 01:13:00,
2013-02-05 19:18:00,35.4,27.2,29.24,WSW,247,0.0,6.7,72,0.00,,,0.00,WUHU21623XXSP,2013-02-06 01:18:00,
2013-02-05 19:23:00,35.4,27.2,29.24,NW,315,2.5,3.4,72,0.00,,,0.00,WUHU21623XXSP,2013-02-06 01:23:00,
2013-02-05 19:28:00,35.4,27.2,29.23,North,0,3.4,3.4,72,0.00,,,0.00,WUHU21623XXSP,2013-02-06 01:28:00,
2013-02-05 19:33:00,35.4,27.2,29.24,NNW,337,6.7,6.7,72,0.00,,,0.00,WUHU21623XXSP,2013-02-06 01:33:00,
2013-02-05 19:38:00,35.4,27.2,29.24,West,270,0.0,6.7,72,0.00,,,0.00,WUHU21623XXSP,2013-02-06 01:38:00,
2013-02-05 19:43:00,35.4,27.2,29.24,West,270,0.0,0.9,72,0.00,,,0.00,WUHU21623XXSP,2013-02-06 01:43:00,
2013-02-05 19:48:00,35.2,27.1,29.24,West,270,0.0,2.5,72,0.00,,,0.00,WUHU21623XXSP,2013-02-06 01:48:00,
2013-02-05 19:53:00,35.2,27.1,29.25,WNW,292,2.2,2.5,72,0.00,,,0.00,WUHU21623XXSP,2013-02-06 01:53:00,
2013-02-05 19:58:00,34.9,27.0,29.25,West,270,0.0,3.6,73,0.00,,,0.00,WUHU21623XXSP,2013-02-06 01:58:00,
2013-02-05 20:03:00,34.9,27.0,29.25,WNW,292,1.1,3.6,73,0.00,,,0.00,WUHU21623XXSP,2013-02-06 02:03:00,
2013-02-05 20:08:00,34.7,26.9,29.25,WNW,292,0.0,3.1,73,0.00,,,0.00,WUHU21623XXSP,2013-02-06 02:08:00,
2013-02-05 20:13:00,34.5,26.7,29.25,NW,315,0.0,2.7,73,0.00,,,0.00,WUHU21623XXSP,2013-02-06 02:13:00,
2013-02-05 20:18:00,34.3,26.5,29.25,North,0,0.0,2.7,73,0.00,,,0.00,WUHU21623XXSP,2013-02-06 02:18:00,
2013-02-05 20:23:00,34.3,26.5,29.25,North,0,0.0,0.0,73,0.00,,,0.00,WUHU21623XXSP,2013-02-06 02:23:00,
2013-02-05 20:28:00,34.2,26.3,29.25,North,0,0.0,1.6,73,0.00,,,0.00,WUHU21623XXSP,2013-02-06 02:28:00,
2013-02-05 20:33:00,33.6,26.0,29.25,NW,315,0.0,1.6,73,0.00,,,0.00,WUHU21623XXSP,2013-02-06 02:33:00,
2013-02-05 20:38:00,33.6,25.8,29.26,NW,315,0.0,1.3,73,0.00,,,0.00,WUHU21623XXSP,2013-02-06 02:38:00,
2013-02-05 20:43:00,33.4,25.6,29.26,NW,315,0.0,0.0,73,0.00,,,0.00,WUHU21623XXSP,2013-02-06 02:43:00,
2013-02-05 20:48:00,33.1,25.6,29.26,NW,315,0.0,0.0,74,0.00,,,0.00,WUHU21623XXSP,2013-02-06 02:48:00,
2013-02-05 20:53:00,32.9,25.5,29.26,NW,315,0.0,0.0,74,0.00,,,0.00,WUHU21623XXSP,2013-02-06 02:53:00,
2013-02-05 20:58:00,32.7,25.3,29.26,NW,315,0.0,0.0,74,0.00,,,0.00,WUHU21623XXSP,2013-02-06 02:58:00,
2013-02-05 21:03:00,32.5,25.1,29.27,NW,315,0.0,0.0,74,0.00,,,0.00,WUHU21623XXSP,2013-02-06 03:03:00,
2013-02-05 21:08:00,32.2,25.0,29.27,NW,315,0.0,0.0,74,0.00,,,0.00,WUHU21623XXSP,2013-02-06 03:08:00,
2013-02-05 21:13:00,32.2,25.1,29.28,NW,315,0.0,0.0,75,0.00,,,0.00,WUHU21623XXSP,2013-02-06 03:13:00,
2013-02-05 21:18:00,31.8,24.8,29.28,WNW,292,0.0,0.0,75,0.00,,,0.00,WUHU21623XXSP,2013-02-06 03:18:00,
2013-02-05 21:23:00,31.8,24.8,29.28,WNW,292,0.9,0.9,75,0.00,,,0.00,WUHU21623XXSP,2013-02-06 03:23:00,
2013-02-05 21:28:00,31.6,24.6,29.28,WNW,292,0.0,2.2,75,0.00,,,0.00,WUHU21623XXSP,2013-02-06 03:28:00,
2013-02-05 21:33:00,31.6,24.9,29.29,West,270,0.0,2.2,76,0.00,,,0.00,WUHU21623XXSP,2013-02-06 03:33:00,
2013-02-05 21:38:00,31.5,24.9,29.29,WNW,292,2.9,2.9,76,0.00,,,0.00,WUHU21623XXSP,2013-02-06 03:38:00,
2013-02-05 21:43:00,31.3,24.6,29.29,WNW,292,0.0,2.9,76,0.00,,,0.00,WUHU21623XXSP,2013-02-06 03:43:00,
2013-02-05 21:48:00,31.3,24.6,29.30,WNW,292,0.0,0.9,76,0.00,,,0.00,WUHU21623XXSP,2013-02-06 03:48:00,
2013-02-05 21:53:00,31.3,24.6,29.30,WNW,292,1.8,1.8,76,0.00,,,0.00,WUHU21623XXSP,2013-02-06 03:53:00,
2013-02-05 21:58:00,31.3,24.9,29.29,West,270,0.0,1.8,77,0.00,,,0.00,WUHU21623XXSP,2013-02-06 03:58:00,
2013-02-05 22:03:00,31.3,24.9,29.30,NW,315,0.0,4.5,77,0.00,,,0.00,WUHU21623XXSP,2013-02-06 04:03:00,
2013-02-05 22:08:00,31.3,24.9,29.30,West,270,0.0,4.5,77,0.00,,,0.00,WUHU21623XXSP,2013-02-06 04:08:00,
2013-02-05 22:13:00,31.3,24.9,29.30,WNW,292,1.1,1.1,77,0.00,,,0.00,WUHU21623XXSP,2013-02-06 04:13:00,
2013-02-05 22:18:00,31.3,24.9,29.30,West,270,0.0,1.1,77,0.00,,,0.00,WUHU21623XXSP,2013-02-06 04:18:00,
2013-02-05 22:23:00,31.3,24.9,29.30,West,270,0.0,0.9,77,0.00,,,0.00,WUHU21623XXSP,2013-02-06 04:23:00,
2013-02-05 22:28:00,31.3,24.9,29.30,West,270,0.0,0.9,77,0.00,,,0.00,WUHU21623XXSP,2013-02-06 04:28:00,
2013-02-05 22:33:00,30.9,24.5,29.30,West,270,0.0,0.0,77,0.00,,,0.00,WUHU21623XXSP,2013-02-06 04:33:00,
2013-02-05 22:38:00,30.9,24.5,29.31,West,270,1.3,2.0,77,0.00,,,0.00,WUHU21623XXSP,2013-02-06 04:38:00,
2013-02-05 22:43:00,30.7,24.7,29.30,West,270,0.0,2.0,78,0.00,,,0.00,WUHU21623XXSP,2013-02-06 04:43:00,
2013-02-05 22:48:00,30.6,24.5,29.30,West,270,0.0,0.0,78,0.00,,,0.00,WUHU21623XXSP,2013-02-06 04:48:00,
2013-02-05 22:53:00,30.4,24.3,29.30,West,270,0.0,0.0,78,0.00,,,0.00,WUHU21623XXSP,2013-02-06 04:53:00,
2013-02-05 22:58:00,30.0,24.2,29.31,West,270,0.0,0.0,78,0.00,,,0.00,WUHU21623XXSP,2013-02-06 04:58:00,
2013-02-05 23:00:00,30.0,24.2,29.31,West,270,0.0,0.0,78,0.00,,,0.00,WUHU21623XXSP,2013-02-06 05:00:00,
2013-02-05 23:05:00,30.0,24.0,29.31,West,270,0.0,0.0,78,0.00,,,0.00,WUHU21623XXSP,2013-02-06 05:05:00,
2013-02-05 23:10:00,29.8,23.8,29.31,West,270,0.0,0.0,78,0.00,,,0.00,WUHU21623XXSP,2013-02-06 05:10:00,
2013-02-05 23:57:00,28.8,23.1,29.32,NNE,23,0.0,0.0,79,0.00,,,0.00,WUHU21623XXSP,2013-02-06 05:57:00,